Regional Weather Roundup
Issued by NWS Pendleton, OR

Home | Current Version | Previous Version | Text Only | Print | Product List | Glossary On
Versions: 1 2 3 4 5 6 7 8 9 10 11 12 13 14 15 16 17 18 19 20 21 22 23 24 25 26 27 28 29 30 31 32 33 34 35 36 37 38 39 40 41 42 43 44 45 46 47 48 49 50
000
ASUS46 KPDT 280025
RWRPDT
PENDLETON REGIONAL WEATHER ROUNDUP
NATIONAL WEATHER SERVICE PENDLETON OREGON
400 PM PST FRI FEB 27 2015

NOTE: FAIR INDICATES FEW OR NO CLOUDS BELOW 12,000 FEET WITH NO
SIGNIFICANT WEATHER AND/OR OBSTRUCTIONS TO VISIBILITY.

# INDICATES UNOFFICIAL STATION AND DATA

WAZ520-280110-
EAST SLOPES OF WASHINGTON CASCADES

CITY            SKY/WX      TMP DP  RH  WIND    PRES   REMARKS
#BUMPING DAM    N/A         33  N/A N/A CALM    N/A
#CLE ELUM HS    N/A         42  33  70  S2      29.75R
#CLE ELUM LAKE  N/A         37  34  89  CALM    29.80R
#CLIFFDEL 2NW   N/A         38  36  92  SW7     N/A
#GLENWOOD       N/A         39  37  92  CALM    29.76F
#MANASTASH CYN  N/A         32  29  89  CALM    29.75S
#NELSON         N/A         41  39  93  CALM    29.82
#NELSON 3SW     N/A         36  35  96  CALM    30.01
#NILE           N/A         38  36  92  CALM    29.06S
#RONALD 2NW     N/A         39  11  31  E1      29.65S
#SNOWDEN        N/A         35  32  89  CALM    N/A
#TEANAWAY 4NE   N/A         42  34  73  N2      N/A
$$

WAZ521-280110-
SIMCOE HIGHLANDS

CITY            SKY/WX      TMP DP  RH  WIND    PRES   REMARKS
#BICKLETON HS   N/A         35  32  89  N9      N/A
#CENTERVILLE 4W N/A         40  37  89  N2      29.50S
#CENTERVILLE 1SWN/A         37  34  89  E1      29.75
#GOLDENDALE     N/A         40  38  92  E2      N/A
#GOLDENDALE 1NE N/A         39  32  76  CALM    N/A
#GOLDENDALE 5WNWN/A         38  37  96  CALM    29.75S
#GOODNOE HILLS  N/A         41  37  86  W7      N/A
#LYLE 6NE       N/A         39  37  92  N1      29.74R
$$

WAZ026-280110-
KITTITAS VALLEY

CITY            SKY/WX      TMP DP  RH  WIND    PRES   REMARKS
ELLENSBURG AP   CLOUDY      48  34  58  SW5     29.77
6HR MIN TEMP:   41; 6HR MAX TEMP:   48; 6HR PCP:  0.02;

#ELLENSBURG CWU N/A         45  36  70  N5      29.75
#KITTITAS 4N    N/A         46  33  60  NE2     28.10S
#KITTITAS 3S    N/A         46  34  63  N7      29.78S
$$

WAZ027-280110-
YAKIMA VALLEY

CITY            SKY/WX      TMP DP  RH  WIND    PRES   REMARKS
SUNNYSIDE AP    CLOUDY      45  38  76  W9      29.74S
YAKIMA AIRPORT  MOCLDY      52  31  44  VRB6    29.76
#DONALD 2NE     N/A         50  28  42  SW6     28.60S
#NACHES 2SW     N/A         45  37  73  N2      29.76S
#OUTLOOK DOT    N/A         N/A N/A N/A W14     N/A
#SELAH 8E       N/A         44  31  60  NE14    N/A    WCI 37
#TOPPENISH      N/A         44  39  82  W8      29.69
#WAPATO 4NE     N/A         50  28  42  SW6     28.60S
#WEST VALLEY    N/A         48  35  60  N7      29.75
#W YAKIMA       N/A         48  34  58  NE8     29.77S
#WHITE SWAN 5E  N/A         43  40  89  SW8     29.79S
#WILEY CITY 3W  N/A         42  24  48  CALM    29.75
$$

WAZ028-280110-
LOWER COLUMBIA BASIN...WASHINGTON

CITY            SKY/WX      TMP DP  RH  WIND    PRES   REMARKS
PASCO           CLOUDY      57  32  38  N10     29.71
6HR MIN TEMP:   47; 6HR MAX TEMP:   58;

PROSSER AWOS    N/A         46  43  89  W16     29.77  WCI 39
#BASIN CITY 5SW N/A         55  32  41  NE7     29.72
#BENTON CITY    N/A         54  33  45  N7      29.64
#CONNELL 5NW    N/A         52  29  41  NE14    29.70
#ELTOPIA        N/A         56  33  42  NE6     29.69R
#ELTOPIA 6NW    N/A         54  33  45  NE16G24 28.69
#KAHLOTUS       N/A         52  30  43  E25G35  29.73S
#KENNEWICK 3S   N/A         55  35  47  CALM    29.72S
#PASCO-BROADMOORN/A         57  30  35  E8      29.61
#PROSSER        N/A         45  39  79  W12     29.74  WCI 39
#SAGEMOOR 2W    N/A         55  33  43  N7      29.58S
#TOUCHET 2S     N/A         53  39  59  W2      29.68
#WEST PASCO     N/A         57  35  43  NE7     29.65S
$$

WAZ029-280110-
FOOTHILLS OF THE BLUES...WASHINGTON

CITY            SKY/WX      TMP DP  RH  WIND    PRES   REMARKS
WALLA WALLA AP  MOCLDY      52  38  59  S8      29.68  HAZE
6HR MIN TEMP:   48; 6HR MAX TEMP:   54;

#DAYTON SCHOOL  N/A         51  29  42  N9      29.70
#LOWDEN 2SE     N/A         54  40  59  W3      29.65S
#PRESCOTT       N/A         54  37  52  NE13    29.69
#SUDBURY        N/A         54  N/A N/A CALM    N/A
#WAITSBURG 8N   N/A         52  16  24  N12     29.53S
#WALLA WALLA 5E N/A         50  42  74  SW2     N/A
#WALLA WALLA U  N/A         53  40  61  CALM    29.70
#WHITMAN MISSIONN/A         53  41  64  S2      29.71
$$

WAZ030-280110-
BLUE MOUNTAINS...WASHINGTON

CITY            SKY/WX      TMP DP  RH  WIND    PRES   REMARKS
#DIXIE 5SE      N/A         46  30  53  N2      29.60
#SKI BLUEWOOD   N/A         38  34  85  CALM    29.64
$$

ORZ009-041-WAZ024-280110-
COLUMBIA RIVER GORGE

CITY            SKY/WX      TMP DP  RH  WIND    PRES   REMARKS
HOOD RIVER AP   LGT RAIN    45  41  86  N5      29.78
THE DALLES AP   LGT RAIN    46  42  86  CALM    29.78
6HR MIN TEMP:   46; 6HR MAX TEMP:   47; 6HR PCP:  0.16;

#ARLINGTON AIRPON/A         42  41  96  W1      30.01S
#ARLINGTON HS   N/A         44  42  93  CALM    29.68R
#MOSIER 1S      N/A         44  37  76  CALM    29.76S
#MURDOCK        N/A         46  43  89  CALM    29.80S

$$

ORZ510-280110-
NORTH CENTRAL OREGON

CITY            SKY/WX      TMP DP  RH  WIND    PRES   REMARKS
#DUFUR 9E       N/A         36  35  96  N7      29.80R
#GRASS VALLEY 1SN/A         36  35  96  NE12    29.79R WCI 28
#MAUPIN SCHOOL  N/A         45  38  76  N5      29.75R
#MORO SCHOOL    N/A         39  39  100 NE6     29.75
#TYGH VALLEY 2NEN/A         45  38  76  NE6     29.73
#WAPANITIA AIRPON/A         42  40  93  NE6     29.74
#WASCO AIRPORT  N/A         41  37  86  NE5     N/A
#WASCO 5NE      N/A         40  37  89  N1      29.76
$$

ORZ511-280110-
CENTRAL OREGON

CITY            SKY/WX      TMP DP  RH  WIND    PRES   REMARKS
BEND AIRPORT    PTCLDY      39  34  82  SW8     29.65S
MADRAS AIRPORT  CLOUDY      41  37  86  N10     29.70
PRINEVILLE AP   MOCLDY      41  36  82  CALM    29.66S
#BEND 6E        N/A         38  34  85  CALM    29.68S
#BEND 1SW       N/A         40  36  85  S1      N/A
#BEND-AWBREY    N/A         38  36  92  SE2     29.68S
#BEND-KIM LN    N/A         40  37  89  S2      29.62
#CROOKED RVR RANN/A         42  38  86  E7      29.68R
#CULVER         N/A         41  37  86  NE7     29.63S
#LAKE BILLY CHINN/A         41  31  67  N7      29.79R
#POWELL BUTTE 3EN/A         44  34  68  N3      N/A
#POWELL BUTTE   N/A         42  34  73  E3      29.32R
#PRINEVILLE 3N  N/A         43  37  79  NW2     29.64S
#WARM SPRINGS   N/A         45  41  86  CALM    29.67

$$


ORZ509-280110-
EAST SLOPES OF OREGON CASCADES

CITY            SKY/WX      TMP DP  RH  WIND    PRES   REMARKS
#CAMP SHERMAN   N/A         43  35  73  SW1     29.66
#MT BACHELOR-MIDN/A         25  23  92  S14     N/A    WCI 13
#SISTERS AIRPOR N/A         43  36  76  N5      30.17S
#SISTERS ODOT   N/A         44  N/A N/A CALM    N/A
#SISTERS 1NW    N/A         44  30  58  N12     N/A    WCI 38
#SISTERS 3N     N/A         44  28  53  W3      29.72R
#SUNRIVER       N/A         39  33  79  S1      29.56F
#TUMALO 3W      N/A         40  36  85  SE5     29.57

$$

ORZ044-280110-
LOWER COLUMBIA BASIN...OREGON

CITY            SKY/WX      TMP DP  RH  WIND    PRES   REMARKS
HERMISTON       CLOUDY      47  42  83  SW10    29.71
6HR MIN TEMP:   47; 6HR MAX TEMP:   50; 6HR PCP:  0.01;

#BOARDMAN 8SW   N/A         46  43  89  W3      29.73F
#ECHO 8SW       N/A         45  42  89  W2      29.70
#IONE SCHOOL    N/A         43  29  57  N2      29.72
#IRRIGON 4NW    N/A         52  41  66  W6      N/A
#UMATILLA SCHOOLN/A         47  46  96  CALM    29.74R
#UMATILLA       N/A         49  41  74  SW8     29.68
$$

ORZ507-280110-
NORTHERN FOOTHILLS OF THE BLUES

CITY            SKY/WX      TMP DP  RH  WIND    PRES   REMARKS
PENDLETON AIRPT CLOUDY      46  39  76  W13     29.68  WCI 40
6HR MIN TEMP:   45; 6HR MAX TEMP:   50; 6HR PCP:  0.01;

#ADAMS 3WNW     N/A         48  39  71  N3      29.69S
#ATHENA         N/A         48  38  68  E5      29.71
#CAYUSE         N/A         48  40  74  N7      29.68S
#HELIX SCHOOL   N/A         48  38  68  VRB6    29.68
#HELIX 3N       N/A         47  37  68  N8      29.66
#HELIX 6SW      N/A         49  38  66  N7      29.69
#HOLDMAN 6E     N/A         48  36  63  SE5     29.51
#M-F FERNDALE   N/A         52  38  59  CALM    29.68
#M-FREEWATER 5SEN/A         49  40  71  CALM    29.69
#PENDLETON DNTN N/A         49  40  71  NW3     29.69
#PDT AQUATIC CTRN/A         49  38  66  W5      29.69S
#PENDLETON 5NE  N/A         49  39  68  N7      29.65S
#PDT SUNRIDGE   N/A         46  41  83  W6      29.69
#PENDLETON 7NW  N/A         48  39  71  W1      28.59
#PILOT ROCK     N/A         43  38  82  S1      29.72R
#TUTUILLA       N/A         45  41  86  W6      29.69S
#UMAPINE 2E     N/A         52  41  66  W2      29.66
#WESTON SCHOOL  N/A         46  36  68  E1      29.68S

$$

ORZ508-280110-
SOUTHERN FOOTHILLS OF THE BLUES

CITY            SKY/WX      TMP DP  RH  WIND    PRES   REMARKS
LEXINGTON       CLOUDY      43  43  100 N6      29.73R
#AJAX           N/A         38  31  76  N8      29.67
#CONDON SCHOOL  N/A         36  35  96  CALM    29.67S
#HEPPNER EOC    N/A         41  38  89  N2      29.67
#HEPPNER 4NE    N/A         38  37  96  N5      29.71
#LEXINGTON 2SE  N/A         44  40  86  N6      29.66
#MIKKALO        N/A         41  39  93  N2      29.73
#OLEX 4N        N/A         42  40  93  CALM    29.72
#RUGGS 5NE      N/A         38  32  79  N2      29.81
#RUGGS 2SW      N/A         37  35  92  NW5     29.73

$$

ORZ502-503-280110-
BLUE MOUNTAINS

CITY            SKY/WX      TMP DP  RH  WIND    PRES   REMARKS
MEACHAM         CLOUDY      42  33  70  VRB3    29.64
6HR MIN TEMP:   38; 6HR MAX TEMP:   42; 6HR PCP:  TRACE;

#HARDMAN 10S    N/A         33  32  96  CALM    29.83
#HEPPNER 15SE   N/A         36  34  92  CALM    29.53F
#LONG CREEK HS  N/A         38  37  96  CALM    29.59S
#PIKES PEAK     N/A         41  33  73  N3      27.99
#TOLLGATE       N/A         34  32  92  N5      29.65S
#TROY SCHOOL    N/A         52  35  52  E2      29.55R
#UKIAH          N/A         38  36  92  N7      29.74R
#WESTON 4E      N/A         42  37  82  N1      29.65
$$

ORZ505-280110-
JOHN DAY BASIN

CITY            SKY/WX      TMP DP  RH  WIND    PRES   REMARKS
JOHN DAY        CLOUDY      38  36  92  SW6     29.66S
#JOHN DAY KJDY  N/A         44  36  73  SW1     29.74
#MONUMENT HS    N/A         43  36  76  NW1     29.70
#MT. VERNON 5SE N/A         36  35  96  CALM    29.60
#SPRAY SCHOOL   N/A         43  N/A N/A CALM    N/A
#WINLOCK        N/A         40  37  89  CALM    29.77S
$$

ORZ506-280110-
OCHOCO AND JOHN DAY HIGHLANDS

CITY            SKY/WX      TMP DP  RH  WIND    PRES   REMARKS
#PAULINA SCHOOL N/A         35  32  89  CALM    29.67S
#PRAIRIE CITY   N/A         35  34  96  NW3     29.77
#SENECA         N/A         35  N/A N/A W2      N/A
#SENECA 9NW     N/A         35  33  92  CALM    29.68
$$

ORZ049-280110-
GRANDE RONDE VALLEY

CITY            SKY/WX      TMP DP  RH  WIND    PRES   REMARKS
LA GRANDE       MOCLDY      46  32  58  N8      29.64S
#COVE           N/A         47  40  76  CALM    29.68
#COVE SCHOOL    N/A         46  38  73  CALM    29.65F
#ELGIN 3N       N/A         46  34  63  E1      29.67S
#ELGIN 1E       N/A         47  36  65  E9      N/A
#IMBLER SCHOOL  N/A         44  35  70  CALM    29.65R
#ISLAND CITY 4N N/A         53  46  77  NE2     29.69
#UNION 1S       N/A         49  36  61  W1      29.60
$$

ORZ050-280110-
WALLOWA COUNTY

CITY            SKY/WX      TMP DP  RH  WIND    PRES   REMARKS
#ENTERPRISE HS  N/A         43  32  65  CALM    29.70R
#IMNAHA SCHOOL  N/A         50  36  58  N7      29.68S
#IMNAHA 10S     N/A         48  30  49  S1      29.67
#JOSEPH 3N      N/A         41  35  79  SE5     29.71S
#JOSEPH 3W      N/A         39  29  67  CALM    29.54S
#MT HOWARD 8000 N/A         23  21  92  CALM    29.58S
#PROMISE 1S     N/A         42  32  67  CALM    29.80
#SHEEP RDG 7000 N/A         24  21  88  CALM    29.80
#WALLOWA SCHOOL N/A         45  33  63  NE1     30.69R



$$



USA.gov is the U.S. government's official web portal to all federal, state and local government web resources and services.